Regional Weather Roundup
Issued by NWS

Home | Current Version | Previous Version | Graphics & Text | Print | Product List | Glossary On
Versions: 1 2 3 4 5 6 7 8 9 10 11 12 13 14 15 16 17 18 19 20 21 22 23 24 25 26 27 28 29 30 31 32 33 34 35 36 37 38 39 40 41 42 43 44 45 46 47 48 49 50
000
ASUS43 KDTX 271801
RWRMI
MICHIGAN HOURLY REGIONAL WEATHER ROUNDUP
NATIONAL WEATHER SERVICE DETROIT/PONTIAC MI
200 PM EDT SAT AUG 27 2016

NOTE: "FAIR" INDICATES FEW OR NO CLOUDS BELOW 12,000 FEET WITH NO
SIGNIFICANT WEATHER AND/OR OBSTRUCTION TO VISIBILITY.

MIZ047>049-052>055-059>063-066>070-074>076-081>083-271900-
SOUTHEAST LOWER MICHIGAN

CITY           SKY/WX    TMP DP  RH WIND       PRES   REMARKS
ADRIAN         TSTM      69  69 100 N9        30.12R FOG
6HR MIN TEMP:  69; 6HR MAX TEMP:  80; 6HR PCP:  0.65;

ALMA           CLOUDY    69  68  96 SE8       30.11S
ANN ARBOR      HVY RAIN  72  70  93 W10       30.13R VSB 1
CARO           RAIN      69  69  98 CALM      30.17R
DETROIT CITY   MOSUNNY   83  65  54 SE10      30.10F
6HR MIN TEMP:  73; 6HR MAX TEMP:  84;

DETROIT        LGT RAIN  82  66  58 S8        30.09F
6HR MIN TEMP:  72; 6HR MAX TEMP:  83; 6HR PCP: TRACE;

FLINT          LGT RAIN  72  68  87 NE8       30.15F
6HR MIN TEMP:  70; 6HR MAX TEMP:  81; 6HR PCP:  0.27;

GROSSE ILE     CLOUDY    82  69  64 E7        30.08F
6HR MIN TEMP:  73; 6HR MAX TEMP:  83;

HILLSDALE      LGT RAIN  72  68  89 CALM      30.13F
6HR MIN TEMP:  51; 6HR MAX TEMP:  84; 6HR PCP:  0.01;

HOWELL         HVY RAIN  68  67  97 NE5       30.15F

CITY           SKY/WX    TMP DP  RH WIND       PRES   REMARKS
JACKSON        LGT RAIN  69  68  96 E5        30.14F
6HR MIN TEMP:  67; 6HR MAX TEMP:  77; 6HR PCP:  0.27;

LAMBERTVILLE   PTSUNNY   84  71  65 E7        30.07F HX  90
6HR MIN TEMP:  70; 6HR MAX TEMP:  87;

LANSING        RAIN      66  64  93 SE10      30.12F FOG
6HR MIN TEMP:  64; 6HR MAX TEMP:  72; 6HR PCP:  0.33;

LAPEER         HVY RAIN  73  69  87 NW10      30.16R
6HR MIN TEMP:  65; 6HR MAX TEMP:  78; 6HR PCP:  0.10;

MASON          HVY RAIN  67  65  94 W5        30.14S
MONROE         CLOUDY    81  70  70 E8        30.07F
6HR MIN TEMP:  70; 6HR MAX TEMP:  84;

MT. CLEMENS    PTSUNNY   82  67  62 E10       30.10F
6HR MIN TEMP:  71; 6HR MAX TEMP:  82;

PONTIAC        TSTM      77  66  68 W7        30.13R
6HR MIN TEMP:  71; 6HR MAX TEMP:  81; 6HR PCP:  0.01;

PORT HURON     PTSUNNY   81  66  61 S8        30.13S
TRI CITIES     LGT RAIN  69  68  96 SE9       30.13F FOG
6HR MIN TEMP:  65; 6HR MAX TEMP:  69; 6HR PCP:  0.55;

MIDLAND        DRIZZLE   70  67  92 SE7       30.11F
6HR MIN TEMP:  63; 6HR MAX TEMP:  70; 6HR PCP:  0.34;

TROY           CLOUDY    84  62  46 SE6       30.12F
SAGINAW HB     LGT RAIN  68  66  94 E7        30.13F
$$
MIZ043>046-050>051-056>058-064>065-071>073-077>080-271900-
SOUTHWEST LOWER MICHIGAN

CITY           SKY/WX    TMP DP  RH WIND       PRES   REMARKS
BATTLE CREEK   LGT RAIN  66  66 100 E7        30.09F
6HR MIN TEMP:  64; 6HR MAX TEMP:  67; 6HR PCP:  0.53;

BENTON HARBOR  MOSUNNY   80  72  76 SE10      30.05F
6HR MIN TEMP:  67; 6HR MAX TEMP:  80; 6HR PCP:  0.94;

BIG RAPIDS     CLOUDY    71  67  89 SE10      30.09S
6HR MIN TEMP:  62; 6HR MAX TEMP:  71; 6HR PCP:  0.15;

COLDWATER      CLOUDY    70  70 100 E6        30.09F FOG
6HR MIN TEMP:  66; 6HR MAX TEMP:  76;

FREMONT        PTSUNNY   71  67  88 SE7       30.06F
HOLLAND        CLOUDY    75  70  84 S12       30.06F
6HR MIN TEMP:  64; 6HR MAX TEMP:  75; 6HR PCP:  0.34;

GRAND RAPIDS   CLOUDY    71  66  84 SE13G18   30.08S
6HR MIN TEMP:  63; 6HR MAX TEMP:  71; 6HR PCP:  0.97;

IONIA          LGT RAIN  66  64  93 E9        30.08F
6HR MIN TEMP:  62; 6HR MAX TEMP:  66; 6HR PCP:  0.56;

KALAMAZOO      CLOUDY    71  67  87 CALM      30.09S
6HR MIN TEMP:  67; 6HR MAX TEMP:  71; 6HR PCP:  0.63;

LUDINGTON      CLOUDY    69  67  91 SE9       30.06S
6HR MIN TEMP:  59; 6HR MAX TEMP:  69; 6HR PCP:  0.26;

MARSHALL       CLOUDY    66  66 100 E5        30.11F
MOUNT PLEASANT CLOUDY    70  67  91 SE6       30.10F
6HR MIN TEMP:  62; 6HR MAX TEMP:  70; 6HR PCP:  0.41;

MUSKEGON       CLOUDY    74  69  85 SE10      30.05F
6HR MIN TEMP:  64; 6HR MAX TEMP:  74; 6HR PCP:  0.16;

SOUTH HAVEN    PTSUNNY   78  72  83 S12G17    30.06S
$$
MIZ016>042-271900-
NORTHERN LOWER MICHIGAN

CITY           SKY/WX    TMP DP  RH WIND       PRES   REMARKS
ALPENA         LGT RAIN  69  61  75 S5        30.16F
6HR MIN TEMP:  62; 6HR MAX TEMP:  70; 6HR PCP:  0.06;

BEAVER ISLAND  DRIZZLE   64  64  97 SE5       30.11F
6HR MIN TEMP:  63; 6HR MAX TEMP:  66;

BELLAIRE       DRIZZLE   64  61  89 N3        30.10F
6HR MIN TEMP:  60; 6HR MAX TEMP:  65;

CADILLAC       CLOUDY    67  64  90 SE7       30.10F
CHARLEVOIX     LGT RAIN  65  63  95 SE5       30.14F
FRANKFORT      CLOUDY    67  63  86 E7        30.07F
GAYLORD        LGT RAIN  65  60  84 VRB7      30.14F
6HR MIN TEMP:  63; 6HR MAX TEMP:  65; 6HR PCP:  0.10;

GRAYLING       CLOUDY    66  62  87 E8        30.14S
HARBOR SPRINGS DRIZZLE   65  64  96 E5        30.13S
HOUGHTON LAKE  PTSUNNY   67  64  90 SE6       30.13F
6HR MIN TEMP:  60; 6HR MAX TEMP:  67; 6HR PCP:  0.22;

MANISTEE       CLOUDY    70  66  87 E6        30.06F
OSCODA         LGT RAIN  69  64  85 E6        30.14F
6HR MIN TEMP:  68; 6HR MAX TEMP:  71;

PELLSTON       LGT RAIN  66  63  90 SE6       30.13F
6HR MIN TEMP:  58; 6HR MAX TEMP:  66; 6HR PCP:  0.11;

ROGERS CITY    LGT RAIN  68  65  89 SE5       30.16F
TRAVERSE CITY  CLOUDY    69  63  81 E7        30.08F
6HR MIN TEMP:  63; 6HR MAX TEMP:  69; 6HR PCP:  0.15;

$$
MIZ007>008-015-271900-
EASTERN UPPER MICHIGAN

CITY           SKY/WX    TMP DP  RH WIND       PRES   REMARKS
KINROSS        LGT RAIN  64  61  90 E8        30.15F
6HR MIN TEMP:  58; 6HR MAX TEMP:  64; 6HR PCP: TRACE;

MACKINAC ISLAN LGT RAIN  63  63 100 E9        30.13F
6HR MIN TEMP:  60; 6HR MAX TEMP:  64; 6HR PCP:  0.08;

NEWBERRY       CLOUDY    64  62  96 SE8       30.13S
6HR MIN TEMP:  56; 6HR MAX TEMP:  64; 6HR PCP:  0.03;

S. S. MARIE    LGT RAIN  65  59  81 SE5       30.15F
6HR MIN TEMP:  57; 6HR MAX TEMP:  65; 6HR PCP:  0.01;

$$
MIZ004>006-011>014-085-271900-
CENTRAL UPPER MICHIGAN

CITY           SKY/WX    TMP DP  RH WIND       PRES   REMARKS
MANISTIQUE     CLOUDY    66  64  93 SE7       30.10F
6HR MIN TEMP:  61; 6HR MAX TEMP:  66; 6HR PCP:  0.09;

ESCANABA       CLOUDY    66  60  81 SE8       30.10S
6HR MIN TEMP:  64; 6HR MAX TEMP:  67; 6HR PCP:  0.03;

MENOMINEE      CLOUDY   N/A N/A N/A E6          N/A
SAWYER-GWINN   PTSUNNY   68  57  68 SW6       30.10F
$$
MIZ001>003-009>011-084-271900-
WESTERN UPPER MICHIGAN

CITY           SKY/WX    TMP DP  RH WIND       PRES   REMARKS
IRON MOUNTAIN  CLOUDY    70  57  63 SE8       30.08F
6HR MIN TEMP:  58; 6HR MAX TEMP:  71; 6HR PCP: TRACE;

HOUGHTON       MOSUNNY   68  49  50 E8        30.08F
6HR MIN TEMP:  53; 6HR MAX TEMP:  70;

IRONWOOD       CLOUDY    69  54  58 VRB3      30.06F
6HR MIN TEMP:  53; 6HR MAX TEMP:  69;

$$

ABBREVIATIONS USED IN REMARKS
   TC - TEMPERATURE IN CELSIUS
  WCI - WIND CHILL INDEX
   HX - HEAT INDEX
  VSB - VISIBILITY





USA.gov is the U.S. government's official web portal to all federal, state and local government web resources and services.